Hourly Data Report for October 02, 2018

TORONTO CITY
ONTARIO
Current Station Operator: ECCC - MSC

43°40'00.000" N
79°24'00.000" W
112.50 m
6158355
71508
XTO

Download Data

Hourly Data (October 2018)
Hourly Data Report for October 2, 2018
TIME
LST
Temp Definition
°C
Dew Point Definition
°C
Rel Hum Definition
%
Precip. Amount Definition
mm

Wind Dir Definition
10's deg

Wind Spd Definition
km/h
Visibility Definition
km
Stn Press Definition
kPa
Hmdx Definition


Wind Chill Definition


Weather Definition


00:00 13.3 10.0 81 0.0 LegendMM LegendMM   100.73     LegendNANA
01:00 11.2 7.4 77 0.0 LegendMM LegendMM   100.67     LegendNANA
02:00 11.4 8.0 79 0.0 LegendMM LegendMM   100.56     LegendNANA
03:00 10.7 8.0 83 1.1 LegendMM LegendMM   100.59     LegendNANA
04:00 10.0 8.1 88 1.3 LegendMM LegendMM   100.49     LegendNANA
05:00 10.2 8.6 90 0.4 LegendMM LegendMM   100.42     LegendNANA
06:00 11.1 9.5 90 0.5 LegendMM LegendMM   100.47     LegendNANA
07:00 11.2 9.5 90 2.5 LegendMM LegendMM   100.38     LegendNANA
08:00 10.8 9.2 90 0.4 LegendMM LegendMM   100.37     LegendNANA
09:00 11.1 9.5 90 0.0 LegendMM LegendMM   100.34     LegendNANA
10:00 11.8 10.1 89 0.0 LegendMM LegendMM   100.32     LegendNANA
11:00 12.0 10.3 89 0.0 LegendMM LegendMM   100.24     LegendNANA
12:00 12.8 11.3 90 1.5 LegendMM LegendMM   100.18     LegendNANA
13:00 13.5 12.1 91 0.0 LegendMM LegendMM   100.07     LegendNANA
14:00 13.8 12.4 91 0.0 LegendMM LegendMM   100.02     LegendNANA
15:00 13.9 12.4 91 0.2 LegendMM LegendMM   100.02     LegendNANA
16:00 13.9 12.5 91 0.0 LegendMM LegendMM   100.02     LegendNANA
17:00 13.4 11.9 90 1.0 LegendMM LegendMM   100.09     LegendNANA
18:00 13.0 11.2 89 0.0 LegendMM LegendMM   100.15     LegendNANA
19:00 12.5 10.4 87 0.0 LegendMM LegendMM   100.26     LegendNANA
20:00 12.1 10.2 89 0.0 LegendMM LegendMM   100.34     LegendNANA
21:00 11.9 9.8 87 0.0 LegendMM LegendMM   100.37     LegendNANA
22:00 11.9 9.6 86 0.0 LegendMM LegendMM   100.41     LegendNANA
23:00 11.7 9.3 85 0.0 LegendMM LegendMM   100.48     LegendNANA

Notes on Data Quality.

Legend

  • E = Estimated
  • M = Missing
  • NA = Not Available*
  • [empty] = Indicates an unobserved value
Date modified: